Location: Bridalveil Moraine
(37.7171°N, 119.6568°W)
Time: 23:46:12
(UTC+00:00)

Tiangong - Pass Details

Date: 29 January 2026
Orbit: 386 x 392 km, 41.5° (Epoch: 10 February)

Event Time Altitude Azimuth Distance (km) Brightness Sun altitude
Exits shadow 13:13:37 49° 121° (ESE) 512 -1.3 -22.1°
Drops below altitude 10° 13:16:05 10° 114° (ESE) 1,426 1.8 -21.6°
Sets 13:18:10 0° 113° (ESE) 2,281 3.1 -21.2°
